Change the Weather History Date:

Thursday, March 7, 2013

  Actual Average Record
Temperature  
Mean Temperature 38 °F -  
Max Temperature 52 °F 46 °F 76 °F (1972)
Min Temperature 24 °F 23 °F 1 °F (1989)
Degree Days  
Heating Degree Days 27    
Moisture  
Dew Point 26 °F    
Average Humidity 71    
Maximum Humidity 87    
Minimum Humidity 39    
Precipitation  
Precipitation 0.00 in - - ()
Sea Level Pressure  
Sea Level Pressure 30.16 in    
Wind  
Wind Speed 12 mph (SE)    
Max Wind Speed 23 mph    
Max Gust Speed 28 mph    
Visibility 10 miles    
Events      
Averages and records for this station are not official NWS values.
T = Trace of Precipitation, MM = Missing Value Source: NWS Daily Summary

Daily Weather History Graph

Daily Weather History Graph

Search for Another Location

Airport or City:

Trip Planner

Search our weather history database for the weather conditions in past years. The results will help you decide how hot, cold, wet, or windy it might be!

Date:

Astronomy

Mar. 07, 2013 Rise Set
Actual Time 6:50 AM CST 6:24 PM CST
Civil Twilight 6:23 AM CST 6:52 PM CST
Nautical Twilight 5:51 AM CST 7:23 PM CST
Astronomical Twilight 5:19 AM CST 7:56 PM CST
Moon 3:53 AM CST (3/7) 2:11 PM CST (3/7)
Length of Visible Light 12h 28m
Length of Day
11h 33m
Waning Crescent, 20% of the Moon is Illuminated
Mar 7
Waning Crescent
Mar 11
New
Mar 19
First Quarter
Mar 27
Full
Apr 2
Last Quarter

Hourly Weather History & Observations

Time (CST) Temp. Windchill Dew Point Humidity Pressure Visibility Wind Dir Wind Speed Gust Speed Precip Events Conditions
12:15 AM 27.5 °F 19.3 °F 23.7 °F 86% 30.25 in 10.0 mi ESE 8.1 mph - N/A   Clear
12:35 AM 28.0 °F 18.6 °F 23.9 °F 84% 30.24 in 10.0 mi ESE 10.4 mph - N/A   Clear
12:55 AM 27.5 °F 18.6 °F 23.5 °F 85% 30.24 in 10.0 mi ESE 9.2 mph - N/A   Clear
1:15 AM 27.0 °F 16.7 °F 23.0 °F 85% 30.23 in 10.0 mi ESE 11.5 mph - N/A   Clear
1:35 AM 26.6 °F 16.8 °F 23.0 °F 86% 30.24 in 10.0 mi ESE 10.4 mph - N/A   Clear
1:55 AM 26.6 °F 16.8 °F 23.0 °F 86% 30.24 in 10.0 mi ESE 10.4 mph - N/A   Clear
2:15 AM 26.4 °F 16.6 °F 22.6 °F 86% 30.24 in 10.0 mi ESE 10.4 mph - N/A   Clear
2:35 AM 26.4 °F 16.0 °F 22.5 °F 85% 30.23 in 10.0 mi SE 11.5 mph - N/A   Clear
2:55 AM 26.1 °F 15.6 °F 22.5 °F 86% 30.22 in 10.0 mi SE 11.5 mph - N/A   Clear
3:15 AM 25.7 °F 15.1 °F 22.1 °F 86% 30.21 in 10.0 mi SE 11.5 mph - N/A   Clear
3:35 AM 25.7 °F 15.7 °F 22.1 °F 86% 30.20 in 10.0 mi SE 10.4 mph - N/A   Clear
3:55 AM 26.1 °F 15.6 °F 22.1 °F 85% 30.20 in 10.0 mi SE 11.5 mph - N/A   Clear
4:15 AM 25.9 °F 15.3 °F 21.9 °F 85% 30.20 in 10.0 mi SE 11.5 mph - N/A   Clear
4:35 AM 25.5 °F 16.9 °F 21.7 °F 86% 30.20 in 10.0 mi SE 8.1 mph - N/A   Clear
4:55 AM 25.2 °F 15.1 °F 21.4 °F 86% 30.19 in 10.0 mi SE 10.4 mph - N/A   Clear
5:15 AM 25.2 °F 15.1 °F 21.2 °F 85% 30.19 in 10.0 mi SE 10.4 mph - N/A   Clear
5:35 AM 24.8 °F 14.6 °F 21.2 °F 86% 30.20 in 10.0 mi SE 10.4 mph - N/A   Clear
6:15 AM 24.3 °F 14.6 °F 20.8 °F 87% 30.21 in 10.0 mi ESE 9.2 mph - N/A   Clear
6:35 AM 24.4 °F 14.9 °F 21.0 °F 87% 30.21 in 10.0 mi SE 9.2 mph - N/A   Clear
6:55 AM 24.4 °F 14.9 °F 20.8 °F 86% 30.22 in 10.0 mi SE 9.2 mph - N/A   Clear
7:15 AM 24.6 °F 14.4 °F 21.0 °F 86% 30.22 in 10.0 mi SE 10.4 mph - N/A   Clear
7:35 AM 25.7 °F 14.0 °F 21.6 °F 84% 30.23 in 10.0 mi SE 13.8 mph - N/A   Clear
7:55 AM 26.6 °F 14.7 °F 21.7 °F 82% 30.22 in 10.0 mi SE 15.0 mph - N/A   Clear
8:15 AM 27.7 °F 15.2 °F 22.3 °F 80% 30.22 in 10.0 mi SE 17.3 mph 20.7 mph N/A   Clear
8:35 AM 28.8 °F 16.2 °F 22.6 °F 78% 30.23 in 10.0 mi SE 18.4 mph - N/A   Clear
8:55 AM 29.8 °F 18.0 °F 23.0 °F 76% 30.22 in 10.0 mi SE 17.3 mph 21.9 mph N/A   Clear
9:15 AM 30.0 °F 17.5 °F 23.5 °F 77% 30.21 in 10.0 mi SE 19.6 mph 23.0 mph N/A   Clear
9:35 AM 31.5 °F 20.1 °F 24.1 °F 74% 30.21 in 10.0 mi SE 17.3 mph - N/A   Clear
9:55 AM 32.2 °F 21.1 °F 24.4 °F 73% 30.21 in 10.0 mi SE 17.3 mph - N/A   Clear
10:15 AM 33.8 °F 22.5 °F 25.0 °F 70% 30.20 in 10.0 mi SE 19.6 mph - N/A   Clear
10:35 AM 35.2 °F 25.4 °F 25.7 °F 68% 30.19 in 10.0 mi SE 16.1 mph 20.7 mph N/A   Clear
10:55 AM 36.9 °F 27.1 °F 25.9 °F 64% 30.18 in 10.0 mi SE 17.3 mph 24.2 mph N/A   Clear
11:15 AM 38.3 °F 28.7 °F 26.6 °F 63% 30.17 in 10.0 mi SSE 18.4 mph 26.5 mph N/A   Clear
11:35 AM 40.1 °F 31.6 °F 27.0 °F 59% 30.16 in 10.0 mi SSE 16.1 mph 24.2 mph N/A   Clear
11:55 AM 41.0 °F 31.6 °F 27.1 °F 58% 30.15 in 10.0 mi SSE 20.7 mph 25.3 mph N/A   Clear
12:15 PM 42.1 °F 33.3 °F 27.9 °F 57% 30.14 in 10.0 mi SSE 19.6 mph 24.2 mph N/A   Clear
12:35 PM 44.6 °F 36.9 °F 28.2 °F 53% 30.13 in 10.0 mi SE 18.4 mph 25.3 mph N/A   Clear
12:55 PM 45.1 °F 37.6 °F 28.4 °F 52% 30.12 in 10.0 mi SE 18.4 mph 24.2 mph N/A   Clear
1:15 PM 46.2 °F 38.3 °F 28.8 °F 51% 30.11 in 10.0 mi SSE 21.9 mph - N/A   Clear
1:35 PM 48.0 °F - 29.7 °F 49% 30.10 in 10.0 mi SE 18.4 mph 27.6 mph N/A   Clear
1:55 PM 48.9 °F - 28.9 °F 46% 30.09 in 10.0 mi SSE 23.0 mph - N/A   Clear
2:15 PM 50.2 °F - 29.8 °F 46% 30.08 in 10.0 mi SE 16.1 mph 25.3 mph N/A   Clear
2:35 PM 51.1 °F - 29.7 °F 44% 30.08 in 10.0 mi SSE 20.7 mph 24.2 mph N/A   Clear
2:55 PM 52.0 °F - 28.8 °F 41% 30.08 in 10.0 mi SSE 18.4 mph 27.6 mph N/A   Clear
3:15 PM 52.0 °F - 28.8 °F 41% 30.08 in 10.0 mi SSE 16.1 mph 24.2 mph N/A   Clear
3:35 PM 52.7 °F - 28.4 °F 39% 30.08 in 10.0 mi SE 17.3 mph 23.0 mph N/A   Clear
3:55 PM 52.9 °F - 28.6 °F 39% 30.08 in 10.0 mi SSE 16.1 mph 20.7 mph N/A   Clear
4:15 PM 52.2 °F - 29.1 °F 41% 30.07 in 10.0 mi SE 15.0 mph - N/A   Clear
4:35 PM 52.3 °F - 29.8 °F 42% 30.08 in 10.0 mi SE 17.3 mph - N/A   Clear
4:55 PM 51.4 °F - 30.6 °F 45% 30.07 in 10.0 mi SE 16.1 mph - N/A   Clear
5:15 PM 51.1 °F - 30.7 °F 46% 30.07 in 10.0 mi SE 16.1 mph - N/A   Clear
5:35 PM 49.5 °F - 30.7 °F 49% 30.07 in 10.0 mi SE 13.8 mph - N/A   Clear
5:55 PM 46.0 °F 40.6 °F 30.7 °F 55% 30.07 in 10.0 mi SE 11.5 mph - N/A   Clear
7:35 PM 38.5 °F 31.6 °F 29.7 °F 71% 30.12 in 10.0 mi ESE 10.4 mph - N/A   Clear
7:55 PM 37.8 °F 31.3 °F 29.5 °F 72% 30.12 in 10.0 mi ESE 9.2 mph - N/A   Clear
8:15 PM 36.3 °F 28.9 °F 29.3 °F 76% 30.12 in 10.0 mi ESE 10.4 mph - N/A   Clear
8:35 PM 37.4 °F 28.9 °F 29.3 °F 73% 30.13 in 10.0 mi ESE 13.8 mph - N/A   Clear
8:55 PM 36.7 °F 28.9 °F 29.1 °F 74% 30.13 in 10.0 mi ESE 11.5 mph - N/A   Clear
9:15 PM 35.8 °F 27.8 °F 28.9 °F 76% 30.14 in 10.0 mi SE 11.5 mph - N/A   Clear
9:35 PM 34.9 °F 27.1 °F 28.4 °F 77% 30.14 in 10.0 mi SE 10.4 mph - N/A   Clear
9:55 PM 34.2 °F 26.8 °F 28.4 °F 79% 30.15 in 10.0 mi SE 9.2 mph - N/A   Clear
10:15 PM 33.4 °F 26.6 °F 28.2 °F 81% 30.16 in 10.0 mi SE 8.1 mph - N/A   Clear
10:35 PM 32.9 °F 25.3 °F 28.0 °F 82% 30.16 in 10.0 mi SE 9.2 mph - N/A   Clear
10:55 PM 32.2 °F 25.8 °F 27.9 °F 84% 30.17 in 10.0 mi SE 6.9 mph - N/A   Clear
11:15 PM 32.0 °F 26.4 °F 27.5 °F 83% 30.17 in 10.0 mi ESE 5.8 mph - N/A   Clear
11:35 PM 31.8 °F 25.4 °F 27.5 °F 84% 30.17 in 10.0 mi SE 6.9 mph - N/A   Clear
11:55 PM 31.1 °F 25.4 °F 27.0 °F 85% 30.17 in 10.0 mi SE 5.8 mph - N/A   Clear